Orbital Elements at Epoch 2459200.5 (2020-Dec-17.0) TDB
Reference: JPL 18 (heliocentric ecliptic J2000)
Element | Value | Uncertainty (1-sigma) | Units |
e | .05529144883510954 | 5.5038e-08 | |
a | 2.857418967978251 | 1.8756e-08 | au |
q | 2.69942813330981 | 1.6056e-07 | au |
i | 1.996124103733169 | 5.7943e-06 | deg |
node | 353.9566792896539 | 0.00012534 | deg |
peri | 4.328433991532391 | 0.00013191 | deg |
M | 268.3534543241771 | 4.3415e-05 | deg |
tp | 2459649.630875166369 (2022-Mar-11.13087517) | 0.00021459 | TDB |
period | 1764.246692197447 4.83 | 1.7371e-05 4.756e-08 | d yr |
n | .2040530961980176 | 2.0091e-09 | deg/d |
Q | 3.015409802646692 | 1.9793e-08 | au |
|
| | Orbit Determination Parameters
Additional Information
|